Epoch 2014 Apr. 13.0 TT = JDT 2456760.5 T 2014 Apr. 15.33534 TT MPC q 2.1388502 (2000.0) P Q z +0.0072412 Peri. 169.18790 -0.78910932 -0.25067850 +/-0.0002233 Node 34.70189 -0.61096286 +0.41467404 e 0.9845121 Incl. 99.93269 -0.06348905 -0.87476038 From 104 observations 2014 Apr. 24-June 2, mean residual 0".6.
m1 = 14.5 + 5 log d + 10.0 log r